Flag for Russia Weather past 2 weeks in Saratov, Russia

Now
57 °F

Clear.


Feels Like: 56 °F
Forecast: 60 / 82 °F
Wind: 6 mph from Southeast

Location: Saratov / Tsentralny

Current Time: Sep 5, 2015 at 12:56:50 AM

Latest Report: Sep 5, 2015 at 12:30 AM


Visibility: 10 mi

Pressure: 29.98 "Hg

Humidity: 77%

Dew point: 50 °F

Location of SaratovLocation

Historic Weather in Saratov — Graph

°F

Saratov temperature yesterday

Maximum temperature yesterday: 59 °F (at 4:00 PM)
Minimum temperature yesterday: 52 °F (at 6:00 AM)
Average temperature yesterday: 57 °F

Past Weeks' High & Low Weather Summary

 TemperatureHumidityPressure
High84 °F (Aug 28, 2:00 PM)100% (Aug 29, 11:30 PM)30.24 "Hg (Aug 29, 11:30 PM)
Low-8 °F (Aug 29, 11:30 PM)20% (Aug 28, 2:00 PM)29.74 "Hg (Aug 29, 11:00 PM)
Average64 °F55%30.02 "Hg
* Reported Aug 20 11:00 PM — Sep 4 11:30 PM, Saratov, Weather by CustomWeather, © 2015

Note: Actual official high and low records may vary slightly from our data, if they occured in-between our weather recording intervals... More about our weather records

Advertising

Saratov weather history for previous 24 hours

 ConditionsComfort  
Time TempWeatherWind HumidityBarometerVisibility
11:30 PM
Fri, Sep 4
59 °FClear.3 mph72%29.98 "Hg10 mi
11:00 PM59 °FClear.3 mph72%29.98 "Hg10 mi
10:30 PM59 °FClear.6 mph77%29.98 "Hg10 mi
10:00 PM59 °FClear.3 mph77%29.98 "Hg10 mi
9:30 PM59 °FClear.6 mph82%29.98 "Hg10 mi
9:00 PM59 °FClear.6 mph82%29.98 "Hg10 mi
8:30 PM59 °FMostly cloudy.6 mph77%30.01 "HgN/A
8:00 PM59 °FMostly cloudy.6 mph77%30.01 "HgN/A
7:30 PM59 °FMore clouds than sun.8 mph77%30.01 "HgN/A
7:00 PM59 °FMore clouds than sun.8 mph77%30.01 "HgN/A
6:30 PM59 °FMore clouds than sun.6 mph77%30.01 "HgN/A
6:00 PM59 °FMore clouds than sun.6 mph77%30.01 "HgN/A
5:30 PM59 °FMore clouds than sun.6 mph72%30.04 "HgN/A
5:00 PM59 °FMore clouds than sun.6 mph72%30.04 "HgN/A
4:30 PM59 °FMore clouds than sun.6 mph72%30.04 "HgN/A
4:00 PM59 °FMore clouds than sun.6 mph72%30.04 "HgN/A
3:30 PM57 °FMore clouds than sun.8 mph82%30.04 "HgN/A
3:00 PM57 °FMore clouds than sun.8 mph82%30.04 "HgN/A
2:30 PM57 °FMore clouds than sun.8 mph82%30.04 "HgN/A
2:00 PM57 °FMore clouds than sun.6 mph82%30.04 "HgN/A
1:30 PM55 °FMostly cloudy.6 mph88%30.04 "HgN/A
1:00 PM55 °FMostly cloudy.1 mph88%30.04 "HgN/A
12:30 PM55 °FMostly cloudy.1 mph88%30.04 "HgN/A
12:00 PM55 °FSprinkles. Mostly cloudy.8 mph88%30.04 "HgN/A
11:30 AM55 °FSprinkles. Mostly cloudy.8 mph82%30.04 "HgN/A
11:00 AM55 °FSprinkles. Mostly cloudy.10 mph82%30.04 "HgN/A
10:30 AM55 °FSprinkles. Overcast.8 mph82%30.07 "Hg4 mi
10:00 AM55 °FSprinkles. Mostly cloudy.8 mph82%30.07 "Hg3 mi
9:30 AM55 °FSprinkles. Overcast.1 mph72%30.07 "HgN/A
9:00 AM55 °FSprinkles. Overcast.1 mph72%30.07 "Hg4 mi
8:30 AM55 °FMostly cloudy.6 mph67%30.01 "HgN/A
8:00 AM55 °FMore clouds than sun.6 mph67%30.01 "HgN/A
7:30 AM57 °FSunny.6 mph67%30.01 "Hg10 mi
7:00 AM57 °FSunny.6 mph67%30.01 "Hg10 mi
6:30 AM52 °FSunny.1 mph82%30.01 "Hg10 mi
6:00 AM52 °FClear.1 mph82%30.01 "Hg10 mi
5:30 AM54 °FClear.1 mph77%29.98 "Hg10 mi
5:00 AM54 °FClear.1 mph77%29.98 "Hg10 mi
4:30 AM54 °FClear.8 mph72%29.98 "Hg10 mi
4:00 AM54 °FClear.10 mph72%29.98 "Hg10 mi
3:30 AM55 °FClear.6 mph67%29.98 "Hg10 mi
3:00 AM55 °FClear.6 mph67%29.98 "Hg10 mi
2:30 AM55 °FClear.6 mph67%29.98 "Hg10 mi
2:00 AM57 °FClear.6 mph63%29.98 "Hg10 mi
1:30 AM55 °FClear.1 mph67%29.98 "Hg10 mi
12:30 AM57 °FClear.1 mph63%29.98 "Hg10 mi
12:00 AM57 °FClear.No wind63%29.98 "Hg10 mi
Weather by CustomWeather, © 2015

See weather overviewHow to use our weather pages